星链-32551 (STARLINK-32551)

导读 | 豆包AI

STARLINK-32551是美国SpaceX公司星链(Starlink)项目的低轨卫星,于2024年11月30日发射入轨,属于Starlink第二代卫星。该卫星运行在近地轨道,为全球尤其是偏远地区提供高速低延迟的宽带互联网接入服务。作为星链星座的一员,它助力缩小全球数字鸿沟,同时还可为军事、航空等领域提供通信支持,目前已稳定在轨运行超一年。

基本信息
目录编号:
62166
目录名称:
STARLINK-32551
国际标识:
2024-225D
轨道中心:
EARTH
卫星名称:
星链-32551
卫星全名:
星链-32551 (STARLINK-32551)
卫星状态:
在轨 (已飞行470 天)
发射日期:
2024-11-30 UTC
国别 :
美国 (US)
星等 :
--
轨道信息
数据来源 国际轨道数据
星历时间: 2026-03-15T06:37:42+0800
7小时前
查看轨道信息
半长轴: 6950.287km
偏心率: 0.0002765
轨道倾角: 70.003°
近地点辐角 274.889°
升交点赤经 151.147°
平近点角 85.195°
近地点: 570.228km
远地点: 574.072km
周期: 96.109分钟
每日圈数: 14.982998
详细信息
固有亮度:
5
最大亮度:
2.5
卫星平台:
Starlink V1.0
覆盖范围:
全球
运营商:
太空探索技术公司
运营商所在国:
美国
制造商(研发单位):
太空探索技术公司
制造商所在国:
美国
使用方式:
暂无
卫星简介
Starlink 计划是 SpaceX 推出的全球卫星互联网项目,通过发射低轨道卫星,为全球尤其是偏远地区提供高速、低延迟的互联网服务。自 2019 年起,Starlink 已部署数千颗卫星,旨在缩小全球数字鸿沟,推动互联网普及。该项目还为军事、航空等行业提供通信支持,带来广泛经济效益。
2D轨道图
3D轨道图
轨道高度分析图
轨道倾角分析图
轨道综合分析图
查看轨道综合分析图